Regional Weather Roundup
Issued by NWS

Home | Current Version | Previous Version | Graphics & Text | Print | Product List | Glossary On
Versions: 1 2 3 4 5 6 7 8 9 10 11 12 13 14 15 16 17 18 19 20 21 22 23 24 25 26 27 28 29 30 31 32 33 34 35 36 37 38 39 40 41 42 43 44 45 46 47 48 49 50
000
ASUS43 KLOT 281112
RWRIL

ILLINOIS REGIONAL WEATHER ROUNDUP
NATIONAL WEATHER SERVICE CHICAGO/ROMEOVILLE IL
600 AM CDT FRI AUG 28 2015

NOTE: "FAIR" INDICATES FEW OR NO CLOUDS BELOW 12,000 FEET WITH NO
SIGNIFICANT WEATHER AND/OR OBSTRUCTIONS TO VISIBILITY.

* THESE STATIONS ARE NOT UNDER NWS QUALITY CONTROL. THEY ALSO MAY NOT
  REPORT WEATHER SUCH AS PRECIPITATION OR FOG.

ILZ001-002-007-009-015-016-024-281200-
NORTHWEST ILLINOIS

CITY           SKY/WX    TMP DP  RH WIND       PRES   REMARKS
MOLINE         CLOUDY    61  57  87 CALM      30.09R
STERLING*      CLOUDY    61  57  88 CALM      30.09R
SAVANNA*       CLOUDY    60  57  89 CALM      30.11S
$$

ILZ003-004-008-010-011-017-018-281200-
NORTH CENTRAL ILLINOIS

CITY           SKY/WX    TMP DP  RH WIND       PRES   REMARKS
ROCKFORD       CLOUDY    61  56  83 CALM      30.13R
FREEPORT*      CLOUDY    58  56  95 CALM      30.13S FOG
ROCHELLE*      CLOUDY    59  57  94 CALM      30.12R
DE KALB*       CLOUDY    59  56  92 SE5       30.13R
PERU*          CLOUDY    61  56  84 S3        30.11S
$$

ILZ005-006-012>014-019>023-281200-
NORTHEAST ILLINOIS

CITY           SKY/WX    TMP DP  RH WIND       PRES   REMARKS
CHICAGO-OHARE  MOCLDY    59  55  87 S5        30.11S
CHICAGO-MIDWAY MOCLDY    62  55  77 S6        30.12R
AURORA         MOCLDY    58  55  90 CALM      30.12S FOG
LANSING*       CLEAR     55  55  99 CALM      30.13R
JOLIET*        PTCLDY    60  57  92 SE3       30.12R
WAUKEGAN       PTCLDY    55  54  96 CALM      30.12R FOG
DUPAGE AIRPORT MOCLDY    58  54  86 CALM      30.12R
KANKAKEE*      CLEAR     56  55  97 CALM      30.14R
WHEELING       PTCLDY    56  53  90 CALM      30.13R
MORRIS*        MOCLDY    58  56  94 CALM      30.10S
ROMEOVILLE*    PTCLDY    57  55  93 SE6       30.12S
NORTHERLY ISL    N/A     60  55  83 S3          N/A
$$

LMZ740>746-281200-
SOUTHERN LAKE MICHIGAN

STATION/POSITION SKY/WX   TEMP    WIND        PRES    VSBY  WAVE
                          AIR SEA DIR/SP/G                  HT/PER
                          (F)     (DEG/KT/KT) (MB)    (MI)  (FT/S)
SOUTHERN BUOY              67 67  170/ 12/ 14 1019.5          1/ 3
WILMETTE HARBOR            58 56  320/  4/  6   N/A           2/ 4
HARRISON CRIB              63     180/ 10/ 11   N/A
BURNHAM HARBOR             60     140/  2/  5   N/A
CALUMET HARBOR             61     160/  2/  5   N/A
BURNS HARBOR               62     150/ 11/ 15 1020.3S
MICHIGAN CITY              60     120/  8/ 10   N/A
MICHIGAN CITY 6N           63 71  170/ 14/ 16   N/A           1/ 2
ST. JOSEPH                 62 71  190/ 14/ 16   N/A           1/ 2
$$

ILZ025>027-034>036-040-047-049-050-058-095>099-281200-
WEST-CENTRAL ILLINOIS

CITY           SKY/WX    TMP DP  RH WIND       PRES   REMARKS
QUINCY         CLEAR     59  56  89 SE6       30.08F
GALESBURG*     CLOUDY    58  57  94 CALM      30.09R
MACOMB*        CLOUDY    55  55 100 S5        30.10F
JACKSONVILLE*  MOCLDY    58  56  92 CALM      30.10S
PITTSFIELD*    PTCLDY    58  56  94 SE3       30.11S
$$

ILZ028>032-037-038-041>044-048-051>054-059>061-281200-
CENTRAL ILLINOIS

CITY           SKY/WX    TMP DP  RH WIND       PRES   REMARKS
PONTIAC        MOCLDY    59  58  98 SE5       30.12S
BLOOMINGTON    MOCLDY    61  59  93 S8        30.13R
DECATUR        PTCLDY    57  54  89 CALM      30.12S
PEORIA         MOCLDY    62  57  83 S3        30.10S
LACON*         MOCLDY    59  56  92 SE3       30.10R
LINCOLN*       PTCLDY    59  57  92 CALM      30.12R
SPRINGFIELD    MOCLDY    57  55  93 CALM      30.13R
TAYLORVILLE    PTCLDY    55  55 100 CALM      30.12S
$$

ILZ033-039-045-046-055>057-062-063-281200-
EAST-CENTRAL ILLINOIS

CITY           SKY/WX    TMP DP  RH WIND       PRES   REMARKS
CHAMPAIGN      CLEAR     58  56  93 SE3       30.13R FOG
RANTOUL*       CLEAR     58  57  96 CALM      30.14R FOG
MATTOON        PTCLDY    59  56  89 S6        30.13R
PARIS*         CLEAR     57  56  98 CALM      30.15R
$$

ILZ079-100>102-281200-
SOUTHWEST ILLINOIS

CITY           SKY/WX    TMP DP  RH WIND       PRES   REMARKS
ALTON          CLEAR     56  56  98 CALM      30.11S FOG
BELLEVILLE     CLEAR     57  57 100 CALM      30.09S
CAHOKIA*       CLEAR     60  57  89 S3        30.10S
SPARTA*        CLEAR     58  57  97 CALM      30.11S
$$

ILZ064>066-069>071-074>076-080>082-084>086-088>090-092>094-281200-
SOUTH-CENTRAL ILLINOIS

CITY           SKY/WX    TMP DP  RH WIND       PRES   REMARKS
CARBONDALE     PTCLDY    55  54  96 CALM      30.11S FOG
CAIRO*         CLEAR     55  55 100 CALM      30.11R FOG
EFFINGHAM*     CLEAR     56  54  92 CALM      30.15R
MARION         FOG       57  55  94 CALM      30.12S VSB 3/4
MT. VERNON     CLEAR     54  48  82 CALM      30.13S
CENTRALIA*     CLEAR     54  54 100 CALM      30.11S
SALEM*         PTCLDY    59  57  94 CALM      30.13R
METROPOLIS*    CLEAR     54  54 100 CALM      30.12S FOG
$$

ILZ067-068-072-073-078-083-087-091-281200-
SOUTHEAST ILLINOIS

CITY           SKY/WX    TMP DP  RH WIND       PRES   REMARKS
LAWRENCEVILLE  CLEAR     57  56  96 CALM      30.14S
FLORA*         FOG       54  54  97 CALM      30.14R VSB 3/4
FAIRFIELD*     CLEAR     57  57  99 CALM      30.13R FOG
HARRISBURG*    PTCLDY    54  54  99 CALM      30.13S FOG
ROBINSON*      CLEAR     52  51  97 CALM      30.15R FOG
CARMI*         CLEAR     53  53  99 CALM      30.12S FOG
$$

ABBREVIATIONS USED IN REMARKS
   TC - TEMPERATURE IN CELSIUS
  WCI - WIND CHILL INDEX
   HX - HEAT INDEX
  VSB - VISIBILITY
$$



USA.gov is the U.S. government's official web portal to all federal, state and local government web resources and services.